Weather in Promysla

Russia / Perm Krai     58°33′49″N   59°09′18″E
temp.,
°C
wind,
m/s
gust,
m/s
humid.,
%
clouds,
%
prec.,
mm/h
press.,
hPa
HPBL,
m
4 march, thu
thu423:00−8wsw239791 0.1 99677
02:00−10wsw119799 0.0 99521
05:00−10wsw129797 0.1 99522
08:00−11w279692 0.1 994154
11:00−8w489095 0.1 994537
14:00−6wsw5885100 0.1 994907
17:00−7wsw4887100 0.2 994876
20:00−9ssw3109575 0.1 994405
5 march, fri
fri523:00−10ssw3109687 0.2 992377
02:00−10se2897100 0.3 989349
05:00−10ene2497100 1.3 988130
08:00−11nnw1297100 0.9 98844
11:00−6w1392100 1.2 990344
14:00−5wsw5891100 0.6 993800
17:00−5w5989100 1.2 995863
20:00−9w5129193 0.1 998575
6 march, sat
sat623:00−12w5129190 0.2 1000458
02:00−14w5149082 0.0 1002461
05:00−18w399849 0.0 1004216
08:00−17wsw31096100 0.1 1005278
11:00−14w598995 0.1 1005669
14:00−12w6983100 0.1 10061129
17:00−13w61086100 0.2 1007882
20:00−17w5119397 0.0 1009433
7 march, sun
sun723:00−19w4109689 0.1 1010301
02:00−22w239951 0.0 101057
05:00−23wsw2210045 0.0 101021
08:00−24wsw2210083 0.0 101025
11:00−17w259179 0.0 1009347
14:00−14w248793 0.0 1008653
17:00−14w348796 0.1 1008680
20:00−20w239892 0.0 100939
8 march, mon
mon823:00−22w229955 0.0 101024
02:00−24wsw2210068 0.0 101020
05:00−25wsw1210079 0.1 100920
08:00−24sw1110099 0.0 100820
11:00−17se239199 0.0 1006247
14:00−14ese3594100 0.3 1004401
17:00−12ese3592100 0.7 1003471
20:00−14ene1297100 0.6 100343